Tracking 20232 objects as of 21-Jan-2020
HD Live streaming from Space Station
objects crossing your sky now

BREEZE-M DEB

Track BREEZE-M DEB now!


NORAD ID: 38187
Int'l Code: 2011-069D
Perigee: 11,846.5 km
Apogee: 34,267.2 km
Inclination: 1.9 °
Period: 837.3 minutes
Semi major axis: 29427 km
RCS: 0.003 m2 (small)
Launch date: November 25, 2011
Source: Commonwealth of Independent States (former USSR) (CIS)
Launch site: TYURATAM MISSILE AND SPACE COMPLEX (TTMTR)

Note: This is SATELLITE DEBRIS
aabbcc
Your satellite tracking list
Your tracking list is empty




NASA's NSSDC Master Catalog

Two Line Element Set (TLE):
1 38187U 11069D   20020.27170044 -.00000072  00000-0  00000+0 0  9992
2 38187   1.9043 333.4667 3809431 237.6554  80.4969  1.71974965 48791
Source of the keplerian elements: AFSPC